User: anonymous   Login
Location: Bailen
(14.1842°N, 120.7958°E)
Time: 04:48:31
(UTC+00:00)
Language:

Cosmos 1703 - Orbit

View from above orbital plane
View from above orbital plane
View from above satellite
View from above satellite

Ground track
Ground track

The orbit is defined by the following mean orbital elements,

1 16262U          26071.71671172 +.00000000 +00000-0 +46421-3 0 00008
2 16262  82.4604 318.4506 0005320   6.5479 353.5841 15.50801035    08
Epoch (UTC): 12 March 2026 17:12:03
Eccentricity: 0.0005320
inclination: 82.4604°
perigee height: 411 km
apogee height: 418 km
right ascension of ascending node: 318.4506°
argument of perigee: 6.5479°
revolutions per day: 15.50801035
mean anomaly at epoch: 353.5841°

The dashed part of the orbit path shows where the satellite is in the earth's shadow,  

DLR